Regional Weather Roundup
Issued by NWS Jackson, KY

Home | Current Version | Previous Version | Graphics & Text | Print | Product List | Glossary On
Versions: 1 2 3 4 5 6 7 8 9 10 11 12 13 14 15 16 17 18 19 20 21 22 23 24 25 26 27 28 29 30 31 32 33 34 35 36 37 38 39 40 41 42 43 44 45 46 47 48 49 50
000
ASUS43 KJKL 220210
RWRJKL

EAST KENTUCKY HOURLY WEATHER ROUNDUP
NATIONAL WEATHER SERVICE JACKSON KY
1000 PM EDT THU MAY 21 2015

NOTE: "FAIR" INDICATES FEW OR NO CLOUDS BELOW 12,000 FEET WITH
NO SIGNIFICANT WEATHER AND/OR OBSTRUCTIONS TO VISIBILITY.

* THESE REPORTS ARE NOT UNDER NWS QUALITY CONTROL AND MAY NOT
  REPORT WEATHER SUCH AS PRECIPITATION AND FOG.

KYZ079-080-083-085-087-088-110-112-115-119-120-220300
...EASTERN KENTUCKY...

CITY           SKY/WX    TMP DP  RH WIND       PRES   REMARKS
JACKSON        CLOUDY    50  47  89 CALM      30.13S FOG
LONDON         CLOUDY    52  46  80 W3        30.15R
SOMERSET*      CLOUDY    50  45  81 NW6       30.17R
MONTICELLO*    CLOUDY    53  49  86 NW6       30.19R
MIDDLESBORO*   CLOUDY    53  47  82 NW6       30.15R
HARLAN APT*    CLOUDY    50  45  81 NW3       30.13R
HAZARD APT*    CLOUDY    50  50 100 CALM      30.14R
PIKEVILLE APT* CLOUDY    48  46  93 NW6       30.12R
BIG SANDY*     CLOUDY    51  48  92 CALM      30.13R
MOREHEAD APT*  CLOUDY    50  45  81 CALM      30.14R
$$

KYZ035-036-041-042-044-050-067-078-099-220300
...CENTRAL KENTUCKY...

CITY           SKY/WX    TMP DP  RH WIND       PRES   REMARKS
MT STERLING*   PTCLDY    46  45  93 W3        30.15R
FLEMING/MASON* CLEAR     48  43  81 W3        30.13R
DANVILLE*      CLOUDY    50  45  81 CALM      30.17R
RICHMOND*      MOCLDY    50  45  81 CALM      30.14R
LEXINGTON      CLEAR     50  42  74 SW3       30.14R
FRANKFORT      CLEAR     48  42  80 CALM      30.14R
$$

KYZ091>093-OHZ055-061-077-WVZ005-015-034-035-042-220300
...SOUTHERN OHIO/WEST VIRGINIA...

CITY           SKY/WX    TMP DP  RH WIND       PRES   REMARKS
COVINGTON      CLEAR     51  41  68 W5        30.11R
COLUMBUS       CLEAR     50  39  66 W3        30.07R
DAYTON         CLEAR     51  39  63 SW7       30.09R
WILMINGTON     CLEAR     51  39  63 W5        30.09R
HUNTINGTON     PTCLDY    49  45  86 W5        30.10R
CHARLESTON     CLOUDY    52  48  86 W5        30.08R
PINEVILLE*     CLOUDY    50  49  97 MISG      30.14R FOG
BECKLEY        LGT RAIN  47  44  90 NW9       30.08R FOG
BLUEFIELD      LGT RAIN  49  45  86 VRB7      30.08R
$$

VAZ002-007-008-TNZ017-027-036-066-071-220300
...SOUTHWEST VIRGINIA/EAST TENNESSEE...

CITY           SKY/WX    TMP DP  RH WIND       PRES   REMARKS
WISE*          CLOUDY    46  46 100 NW8       30.12R FOG
JONESVILLE*    CLOUDY    50  48  93 NW6       30.14R
ABINGDON*      CLOUDY    54  48  81 N9        30.09R
BRISTOL        CLOUDY    56  48  74 NW9       30.09R
KNOXVILLE      CLOUDY    56  47  71 N10       30.12R
OAK RIDGE      CLOUDY    56  47  71 NW5       30.15R
CROSSVILLE     CLOUDY    50  45  83 NW6       30.15R
NASHVILLE      CLOUDY    55  45  68 VRB3      30.19R
$$

...KEY TO REMARKS...
VSB - VISIBILITY IN MILES
WCI - WIND CHILL INDEX
HX  - HEAT INDEX

$$



USA.gov is the U.S. government's official web portal to all federal, state and local government web resources and services.